sat.trackr.live / text

‹ back to catalog

STARLINK-32867

NORAD 62855 · 2025-022B

PAYLOAD ACTIVE UNKNOWN

§ Identity

Operator
Country
US
Launch date
2025-02-01
Launch site
AFWTR
Launch vehicle
Mass (kg)
RCS (m²)

Purposes: comms

External: N2YO · Heavens-Above · Gunter

§ Orbital elements

Epoch: 2026-09-21T09:08:27.003840Z

Period
93.85 min
Inclination
53.1597°
Eccentricity
0.0000967
Mean motion
15.34390020 rev/d
Perigee alt
462.1 km
Apogee alt
463.4 km
Semi-major
6,840.9 km
B*
1.6546e-4
RAAN
297.6386°
Arg perigee
67.4933°
Mean anomaly
292.6172°
Rev number
9,190

§ Raw data

STARLINK-328671 62855U 25022B   26264.38086810  .00005217  00000+0  16546-3 0  99902 62855  53.1597 297.6386 0000967  67.4933 292.6172 15.34390020 91908

JSON: /api/v1/satellites/62855 · /tle

For live sub-satellite position, see the globe view (requires WebGL).

§ Visibility from observer

Set your observer location to see the next 7 days of passes ≥ 10°. The values pass through the URL so the page stays shareable.

No JS? Fill the form by hand. The geolocation button needs JavaScript.